sat.trackr.live / text

‹ back to catalog

GEOSCAN 3 (RS92S3)

NORAD 64893 · 2025-155T

PAYLOAD ACTIVE UNKNOWN

§ Identity

Operator
Country
CIS
Launch date
2025-07-25
Launch site
VOSTO
Launch vehicle
Mass (kg)
RCS (m²)

Purposes: comms

External: N2YO · Heavens-Above · Gunter

§ Orbital elements

Epoch: 2026-05-25T04:20:37.603392Z

Period
93.84 min
Inclination
97.4524°
Eccentricity
0.0003445
Mean motion
15.34508245 rev/d
Perigee alt
460.0 km
Apogee alt
464.7 km
Semi-major
6,840.5 km
B*
5.4422e-4
RAAN
114.8065°
Arg perigee
258.5286°
Mean anomaly
101.5570°
Rev number
7,732

§ Raw data

GEOSCAN 3 (RS92S3)1 64893U 25155T   26145.18099078  .00018136  00000+0  54422-3 0  99962 64893  97.4524 114.8065 0003445 258.5286 101.5570 15.34508245 77325

JSON: /api/v1/satellites/64893 · /tle

For live sub-satellite position, see the globe view (requires WebGL).

§ Visibility from observer

Set your observer location to see the next 7 days of passes ≥ 10°. The values pass through the URL so the page stays shareable.

No JS? Fill the form by hand. The geolocation button needs JavaScript.

§ Radio — SatNOGS DB

ModeDescriptionDownlinkUplink
GFSK Mode U - GFSK9k6 - AX.25 Beacon and Ham Payload (Geoscan framing) 435.740 MHz

1 transmitter · refreshed weekly from db.satnogs.org